Current weather by "City, St" or "zip code"  
 

Current Conditions: Roanoke, Roanoke Regional Airport, VA

Fair


60.0 F

Last Updated on Sep 22 2020, 9:54 pm EDT
Humidity: 67%
Wind Speed: W 5.8 mph
Barometer 30.12 in
Dewpoint: 48.9 F
Visibility: 10.00 mi
Precip: --
Heat Index: NA
Wind Chill: 60 F
Current conditions at:

Roanoke, Roanoke Regional Airport, VA (KROA)

Lat: 37.31694 Lon: 79.97417

Local Radar Image active severe weather and emergency alerts image image weather storm and storm spotter reports image weather observation monitoring service image
Local
Radar
Active
Alerts
Storm Reports Obs
Monitoring

Sign-up For Email & Text Message Weather Alert Notification Services



Advertise Here

Observation History for Roanoke, Roanoke Regional Airport, VA


Time Wind
(mph)
Vis
(mi)
Weather Precip (in) Temperature (F) Relative
Humidity
Wind
Chill
(F)
Heat
Index
(F)
Pressure
Air Dwpt altimeter
(in)
sea level
(mb)
Rmks
9:54 pm EDT W 5.8 10.00 Fair -- 60.0 48.9 67% 60 NA 30.12 1019.5
8:54 pm EDT W 4.6 10.00 Fair -- 62.0 48.0 60% 62 NA 30.11 1019.5
7:54 pm EDT NW 4.6 10.00 A Few Clouds -- 62.0 48.0 60% 62 NA 30.11 1019.4
6:54 pm EDT W 5.8 10.00 A Few Clouds -- 68.0 46.0 45% NA NA 30.11 1019.5
5:54 pm EDT W 8.1 10.00 A Few Clouds -- 73.0 45.0 37% NA NA 30.11 1019.4
4:54 pm EDT S 4.6 10.00 A Few Clouds -- 72.0 48.9 44% NA NA 30.13 1019.8
3:54 pm EDT N 0.0 10.00 A Few Clouds -- 72.0 48.9 44% NA NA 30.15 1020.7
2:54 pm EDT 3.5 10.00 Fair -- 69.0 46.9 45% NA NA 30.18 1021.6
1:54 pm EDT 3.5 10.00 Fair -- 68.0 46.9 47% NA NA 30.22 1022.9
12:54 pm EDT NE 3.5 10.00 Fair -- 65.0 46.9 52% NA NA 30.26 1024.4
11:54 am EDT N 0.0 10.00 Fair -- 63.0 46.9 56% NA NA 30.28 1025.3
10:54 am EDT 4.6 10.00 Fair -- 58.0 46.9 67% 58 NA 30.31 1026.1
9:54 am EDT N 0.0 10.00 Fair -- 52.0 46.0 80% NA NA 30.33 1027.0
8:54 am EDT N 0.0 10.00 Fair -- 48.0 43.0 83% NA NA 30.34 1027.1
7:54 am EDT N 0.0 10.00 Fair -- 43.0 41.0 93% NA NA 30.33 1027.2
6:54 am EDT W 3.5 6.00 Fog/Mist -- 40.0 37.9 93% NA NA 30.33 1027.2
5:54 am EDT N 0.0 10.00 Fair -- 42.0 39.0 89% NA NA 30.33 1027.0
4:54 am EDT N 0.0 10.00 Fair -- 42.0 39.9 92% NA NA 30.34 1027.3
3:54 am EDT N 0.0 10.00 Fair -- 43.0 41.0 93% NA NA 30.36 1027.8
2:54 am EDT N 0.0 10.00 Fair -- 45.0 42.1 90% NA NA 30.37 1028.1
1:54 am EDT N 0.0 10.00 Fair -- 47.0 43.0 86% NA NA 30.38 1028.6
12:54 am EDT N 0.0 10.00 Fair -- 47.0 44.1 90% NA NA 30.40 1029.3
11:54 pm EDT W 3.5 10.00 Fair -- 48.0 44.1 86% NA NA 30.41 1029.7
10:54 pm EDT N 0.0 10.00 Fair -- 50.0 44.1 80% NA NA 30.41 1029.7

Regional Weather Observation


Lewisburg / Greenbrier, WV (KLWB)

Fair
47.0 F

Roanoke, Roanoke Regional Airport, VA (KROA)

Fair
60.0 F

Dublin / New River Valley, VA (KPSK)

Fair
59.0 F

Hot Springs / Ingalls, VA (KHSP)

Fair
54.0 F

Lynchburg, Lynchburg Regional Airport, VA (KLYH)

Fair
53.0 F

Beckley, Raleigh County Memorial Airport, WV (KBKW)

Fair
53.0 F